Year,Month,Day,Hour,Minute,Value (Times are PST for temperature in C)
2008,01,22,00,01,-4.30
2008,01,22,00,02,-4.30
2008,01,22,00,03,-4.30
2008,01,22,00,04,-4.30
2008,01,22,00,06,-4.30
2008,01,22,00,07,-4.30
2008,01,22,00,08,-4.30
2008,01,22,00,09,-4.30
2008,01,22,00,10,-4.40
2008,01,22,00,11,-4.40
2008,01,22,00,12,-4.40
2008,01,22,00,13,-4.40
2008,01,22,00,14,-4.40
2008,01,22,00,16,-4.40
2008,01,22,00,18,-4.40
2008,01,22,00,20,-4.40
2008,01,22,00,22,-4.40
2008,01,22,00,23,-4.50
2008,01,22,00,24,-4.50
2008,01,22,00,25,-4.50
2008,01,22,00,27,-4.50
2008,01,22,00,28,-4.50
2008,01,22,00,29,-4.50
2008,01,22,00,31,-4.60
2008,01,22,00,32,-4.60
2008,01,22,00,33,-4.60
2008,01,22,00,34,-4.60
2008,01,22,00,35,-4.60
2008,01,22,00,36,-4.60
2008,01,22,00,37,-4.60
2008,01,22,00,38,-4.60
2008,01,22,00,39,-4.70
2008,01,22,00,40,-4.70
2008,01,22,00,41,-4.70
2008,01,22,00,42,-4.70
2008,01,22,00,43,-4.70
2008,01,22,00,44,-4.70
2008,01,22,00,45,-4.70
2008,01,22,00,47,-4.70
2008,01,22,00,49,-4.70
2008,01,22,00,50,-4.80
2008,01,22,00,51,-4.80
2008,01,22,00,52,-4.80
2008,01,22,00,53,-4.80
2008,01,22,00,54,-4.80
2008,01,22,00,55,-4.70
2008,01,22,00,56,-4.80
2008,01,22,00,57,-4.80
2008,01,22,00,58,-4.80
2008,01,22,00,59,-4.80
2008,01,22,01,00,-4.80
2008,01,22,01,01,-4.80
2008,01,22,01,02,-4.80
2008,01,22,01,03,-4.80
2008,01,22,01,04,-4.80
2008,01,22,01,05,-4.80
2008,01,22,01,06,-4.80
2008,01,22,01,07,-4.80
2008,01,22,01,08,-4.80
2008,01,22,01,10,-4.80
2008,01,22,01,11,-4.80
2008,01,22,01,12,-4.80
2008,01,22,01,13,-4.80
2008,01,22,01,15,-4.80
2008,01,22,01,16,-4.80
2008,01,22,01,17,-4.80
2008,01,22,01,18,-4.80
2008,01,22,01,19,-4.80
2008,01,22,01,20,-4.80
2008,01,22,01,21,-4.90
2008,01,22,01,23,-4.90
2008,01,22,01,24,-4.90
2008,01,22,01,25,-4.90
2008,01,22,01,26,-4.90
2008,01,22,01,28,-4.90
2008,01,22,01,29,-4.90
2008,01,22,01,30,-5.00
2008,01,22,01,31,-5.00
2008,01,22,01,33,-5.00
2008,01,22,01,34,-5.00
2008,01,22,01,36,-5.10
2008,01,22,01,37,-5.10
2008,01,22,01,38,-5.10
2008,01,22,01,39,-5.10
2008,01,22,01,40,-5.10
2008,01,22,01,41,-5.10
2008,01,22,01,42,-5.10
2008,01,22,01,43,-5.10
2008,01,22,01,45,-5.10
2008,01,22,01,46,-5.10
2008,01,22,01,47,-5.10
2008,01,22,01,48,-5.10
2008,01,22,01,49,-5.10
2008,01,22,01,50,-5.10
2008,01,22,01,52,-5.10
2008,01,22,01,54,-5.20
2008,01,22,01,55,-5.20
2008,01,22,01,56,-5.20
2008,01,22,01,58,-5.20
2008,01,22,01,59,-5.20
2008,01,22,02,00,-5.20
2008,01,22,02,01,-5.20
2008,01,22,02,03,-5.20
2008,01,22,02,04,-5.20
2008,01,22,02,05,-5.20
2008,01,22,02,06,-5.20
2008,01,22,02,07,-5.20
2008,01,22,02,08,-5.20
2008,01,22,02,09,-5.20
2008,01,22,02,10,-5.20
2008,01,22,02,11,-5.20
2008,01,22,02,12,-5.20
2008,01,22,02,14,-5.20
2008,01,22,02,15,-5.20
2008,01,22,02,16,-5.20
2008,01,22,02,18,-5.20
2008,01,22,02,19,-5.20
2008,01,22,02,20,-5.20
2008,01,22,02,21,-5.20
2008,01,22,02,22,-5.20
2008,01,22,02,23,-5.20
2008,01,22,02,24,-5.20
2008,01,22,02,25,-5.20
2008,01,22,02,26,-5.20
2008,01,22,02,27,-5.20
2008,01,22,02,28,-5.20
2008,01,22,02,29,-5.20
2008,01,22,02,30,-5.20
2008,01,22,02,31,-5.20
2008,01,22,02,32,-5.20
2008,01,22,02,33,-5.20
2008,01,22,02,34,-5.20
2008,01,22,02,35,-5.20
2008,01,22,02,36,-5.20
2008,01,22,02,37,-5.20
2008,01,22,02,38,-5.20
2008,01,22,02,39,-5.20
2008,01,22,02,40,-5.20
2008,01,22,02,42,-5.20
2008,01,22,02,43,-5.20
2008,01,22,02,44,-5.20
2008,01,22,02,45,-5.30
2008,01,22,02,46,-5.30
2008,01,22,02,47,-5.30
2008,01,22,02,48,-5.30
2008,01,22,02,50,-5.30
2008,01,22,02,51,-5.30
2008,01,22,02,52,-5.30
2008,01,22,02,53,-5.30
2008,01,22,02,54,-5.30
2008,01,22,02,55,-5.30
2008,01,22,02,56,-5.30
2008,01,22,02,57,-5.30
2008,01,22,02,58,-5.30
2008,01,22,02,59,-5.30
2008,01,22,03,00,-5.30
2008,01,22,03,01,-5.30
2008,01,22,03,02,-5.30
2008,01,22,03,03,-5.30
2008,01,22,03,04,-5.30
2008,01,22,03,05,-5.30
2008,01,22,03,06,-5.30
2008,01,22,03,07,-5.30
2008,01,22,03,08,-5.30
2008,01,22,03,09,-5.30
2008,01,22,03,10,-5.30
2008,01,22,03,11,-5.30
2008,01,22,03,12,-5.30
2008,01,22,03,13,-5.40
2008,01,22,03,14,-5.40
2008,01,22,03,15,-5.40
2008,01,22,03,16,-5.40
2008,01,22,03,17,-5.40
2008,01,22,03,18,-5.40
2008,01,22,03,19,-5.40
2008,01,22,03,20,-5.40
2008,01,22,03,21,-5.40
2008,01,22,03,22,-5.40
2008,01,22,03,23,-5.40
2008,01,22,03,24,-5.40
2008,01,22,03,25,-5.40
2008,01,22,03,26,-5.40
2008,01,22,03,27,-5.40
2008,01,22,03,28,-5.40
2008,01,22,03,30,-5.40
2008,01,22,03,32,-5.40
2008,01,22,03,33,-5.40
2008,01,22,03,34,-5.40
2008,01,22,03,35,-5.40
2008,01,22,03,36,-5.40
2008,01,22,03,37,-5.40
2008,01,22,03,38,-5.40
2008,01,22,03,39,-5.40
2008,01,22,03,40,-5.40
2008,01,22,03,42,-5.40
2008,01,22,03,43,-5.40
2008,01,22,03,44,-5.40
2008,01,22,03,45,-5.40
2008,01,22,03,46,-5.40
2008,01,22,03,47,-5.40
2008,01,22,03,48,-5.40
2008,01,22,03,49,-5.40
2008,01,22,03,50,-5.40
2008,01,22,03,51,-5.40
2008,01,22,03,52,-5.40
2008,01,22,03,53,-5.40
2008,01,22,03,54,-5.40
2008,01,22,03,55,-5.40
2008,01,22,03,56,-5.40
2008,01,22,03,57,-5.40
2008,01,22,03,58,-5.50
2008,01,22,03,59,-5.40
2008,01,22,04,00,-5.50
2008,01,22,04,01,-5.50
2008,01,22,04,02,-5.50
2008,01,22,04,03,-5.50
2008,01,22,04,04,-5.50
2008,01,22,04,05,-5.50
2008,01,22,04,06,-5.50
2008,01,22,04,07,-5.50
2008,01,22,04,08,-5.60
2008,01,22,04,09,-5.60
2008,01,22,04,10,-5.60
2008,01,22,04,11,-5.60
2008,01,22,04,12,-5.60
2008,01,22,04,14,-5.60
2008,01,22,04,15,-5.60
2008,01,22,04,16,-5.60
2008,01,22,04,17,-5.60
2008,01,22,04,18,-5.60
2008,01,22,04,19,-5.60
2008,01,22,04,20,-5.60
2008,01,22,04,21,-5.60
2008,01,22,04,22,-5.60
2008,01,22,04,23,-5.70
2008,01,22,04,25,-5.70
2008,01,22,04,26,-5.70
2008,01,22,04,27,-5.70
2008,01,22,04,29,-5.70
2008,01,22,04,31,-5.70
2008,01,22,04,32,-5.70
2008,01,22,04,33,-5.70
2008,01,22,04,34,-5.70
2008,01,22,04,35,-5.70
2008,01,22,04,36,-5.70
2008,01,22,04,37,-5.70
2008,01,22,04,38,-5.70
2008,01,22,04,39,-5.70
2008,01,22,04,40,-5.70
2008,01,22,04,41,-5.70
2008,01,22,04,42,-5.70
2008,01,22,04,43,-5.70
2008,01,22,04,44,-5.70
2008,01,22,04,45,-5.70
2008,01,22,04,46,-5.70
2008,01,22,04,47,-5.80
2008,01,22,04,48,-5.80
2008,01,22,04,49,-5.80
2008,01,22,04,50,-5.80
2008,01,22,04,51,-5.80
2008,01,22,04,52,-5.80
2008,01,22,04,53,-5.80
2008,01,22,04,54,-5.80
2008,01,22,04,55,-5.80
2008,01,22,04,56,-5.80
2008,01,22,04,57,-5.80
2008,01,22,04,58,-5.80
2008,01,22,04,59,-5.80
2008,01,22,05,00,-5.80
2008,01,22,05,01,-5.80
2008,01,22,05,02,-5.80
2008,01,22,05,03,-5.80
2008,01,22,05,04,-5.80
2008,01,22,05,05,-5.80
2008,01,22,05,06,-5.80
2008,01,22,05,07,-5.80
2008,01,22,05,09,-5.80
2008,01,22,05,10,-5.80
2008,01,22,05,11,-5.80
2008,01,22,05,12,-5.80
2008,01,22,05,13,-5.80
2008,01,22,05,14,-5.80
2008,01,22,05,15,-5.80
2008,01,22,05,16,-5.80
2008,01,22,05,17,-5.80
2008,01,22,05,18,-5.80
2008,01,22,05,19,-5.80
2008,01,22,05,20,-5.80
2008,01,22,05,21,-5.80
2008,01,22,05,22,-5.80
2008,01,22,05,23,-5.80
2008,01,22,05,24,-5.80
2008,01,22,05,25,-5.80
2008,01,22,05,26,-5.80
2008,01,22,05,27,-5.80
2008,01,22,05,28,-5.80
2008,01,22,05,29,-5.80
2008,01,22,05,30,-5.80
2008,01,22,05,31,-5.80
2008,01,22,05,32,-5.80
2008,01,22,05,33,-5.80
2008,01,22,05,34,-5.80
2008,01,22,05,35,-5.80
2008,01,22,05,36,-5.80
2008,01,22,05,37,-5.80
2008,01,22,05,38,-5.80
2008,01,22,05,39,-5.80
2008,01,22,05,40,-5.80
2008,01,22,05,41,-5.90
2008,01,22,05,42,-5.90
2008,01,22,05,43,-5.80
2008,01,22,05,44,-5.90
2008,01,22,05,45,-5.80
2008,01,22,05,46,-5.90
2008,01,22,05,47,-5.80
2008,01,22,05,48,-5.80
2008,01,22,05,49,-5.80
2008,01,22,05,50,-5.80
2008,01,22,05,51,-5.80
2008,01,22,05,52,-5.80
2008,01,22,05,53,-5.80
2008,01,22,05,54,-5.80
2008,01,22,05,55,-5.80
2008,01,22,05,56,-5.80
2008,01,22,05,57,-5.80
2008,01,22,05,58,-5.80
2008,01,22,05,59,-5.80
2008,01,22,06,00,-5.80
2008,01,22,06,01,-5.80
2008,01,22,06,02,-5.80
2008,01,22,06,03,-5.80
2008,01,22,06,04,-5.80
2008,01,22,06,05,-5.70
2008,01,22,06,06,-5.70
2008,01,22,06,07,-5.70
2008,01,22,06,08,-5.70
2008,01,22,06,11,-5.70
2008,01,22,06,12,-5.70
2008,01,22,06,13,-5.70
2008,01,22,06,14,-5.70
2008,01,22,06,15,-5.70
2008,01,22,06,16,-5.70
2008,01,22,06,17,-5.70
2008,01,22,06,18,-5.70
2008,01,22,06,19,-5.70
2008,01,22,06,20,-5.70
2008,01,22,06,21,-5.70
2008,01,22,06,23,-5.70
2008,01,22,06,24,-5.70
2008,01,22,06,25,-5.70
2008,01,22,06,26,-5.70
2008,01,22,06,27,-5.70
2008,01,22,06,28,-5.70
2008,01,22,06,29,-5.70
2008,01,22,06,30,-5.70
2008,01,22,06,31,-5.70
2008,01,22,06,32,-5.70
2008,01,22,06,33,-5.70
2008,01,22,06,34,-5.70
2008,01,22,06,35,-5.70
2008,01,22,06,36,-5.70
2008,01,22,06,37,-5.70
2008,01,22,06,38,-5.70
2008,01,22,06,39,-5.70
2008,01,22,06,40,-5.70
2008,01,22,06,41,-5.70
2008,01,22,06,42,-5.70
2008,01,22,06,43,-5.70
2008,01,22,06,44,-5.70
2008,01,22,06,45,-5.70
2008,01,22,06,48,-5.80
2008,01,22,06,49,-5.80
2008,01,22,06,51,-5.80
2008,01,22,06,53,-5.80
2008,01,22,06,54,-5.80
2008,01,22,06,55,-5.80
2008,01,22,06,56,-5.80
2008,01,22,06,57,-5.80
2008,01,22,06,59,-5.90
2008,01,22,07,01,-5.90
2008,01,22,07,02,-5.90
2008,01,22,07,03,-5.90
2008,01,22,07,04,-5.90
2008,01,22,07,05,-5.90
2008,01,22,07,06,-5.90
2008,01,22,07,07,-5.90
2008,01,22,07,08,-5.90
2008,01,22,07,10,-5.90
2008,01,22,07,12,-5.90
2008,01,22,07,13,-5.90
2008,01,22,07,14,-5.90
2008,01,22,07,16,-5.90
2008,01,22,07,17,-5.90
2008,01,22,07,18,-5.90
2008,01,22,07,19,-5.90
2008,01,22,07,20,-5.90
2008,01,22,07,21,-5.90
2008,01,22,07,22,-5.90
2008,01,22,07,24,-5.90
2008,01,22,07,25,-5.90
2008,01,22,07,26,-5.90
2008,01,22,07,27,-5.90
2008,01,22,07,28,-5.90
2008,01,22,07,30,-5.90
2008,01,22,07,31,-5.90
2008,01,22,07,32,-5.90
2008,01,22,07,33,-5.90
2008,01,22,07,34,-6.00
2008,01,22,07,35,-6.00
2008,01,22,07,36,-6.00
2008,01,22,07,37,-6.00
2008,01,22,07,38,-6.00
2008,01,22,07,39,-6.00
2008,01,22,07,40,-6.00
2008,01,22,07,41,-6.00
2008,01,22,07,42,-6.00
2008,01,22,07,43,-6.00
2008,01,22,07,44,-6.00
2008,01,22,07,46,-6.00
2008,01,22,07,47,-5.90
2008,01,22,07,49,-5.90
2008,01,22,07,50,-5.90
2008,01,22,07,51,-5.90
2008,01,22,07,53,-5.90
2008,01,22,07,54,-5.90
2008,01,22,07,55,-5.90
2008,01,22,07,56,-5.90
2008,01,22,07,57,-5.90
2008,01,22,07,58,-5.90
2008,01,22,07,59,-5.90
2008,01,22,08,00,-5.90
2008,01,22,08,01,-5.90
2008,01,22,08,02,-5.90
2008,01,22,08,04,-5.90
2008,01,22,08,06,-5.90
2008,01,22,08,08,-5.90
2008,01,22,08,09,-5.90
2008,01,22,08,10,-5.90
2008,01,22,08,11,-5.80
2008,01,22,08,12,-5.80
2008,01,22,08,13,-5.80
2008,01,22,08,14,-5.80
2008,01,22,08,17,-5.80
2008,01,22,08,18,-5.80
2008,01,22,08,19,-5.80
2008,01,22,08,20,-5.80
2008,01,22,08,21,-5.80
2008,01,22,08,23,-5.80
2008,01,22,08,24,-5.80
2008,01,22,08,25,-5.80
2008,01,22,08,26,-5.80
2008,01,22,08,27,-5.80
2008,01,22,08,28,-5.80
2008,01,22,08,29,-5.80
2008,01,22,08,31,-5.80
2008,01,22,08,32,-5.80
2008,01,22,08,34,-5.80
2008,01,22,08,35,-5.80
2008,01,22,08,36,-5.80
2008,01,22,08,37,-5.80
2008,01,22,08,39,-5.80
2008,01,22,08,41,-5.80
2008,01,22,08,42,-5.80
2008,01,22,08,43,-5.70
2008,01,22,08,45,-5.70
2008,01,22,08,47,-5.70
2008,01,22,08,48,-5.70
2008,01,22,08,49,-5.70
2008,01,22,08,50,-5.70
2008,01,22,08,51,-5.70
2008,01,22,08,52,-5.70
2008,01,22,08,53,-5.70
2008,01,22,08,54,-5.70
2008,01,22,08,55,-5.70
2008,01,22,08,56,-5.70
2008,01,22,08,57,-5.70
2008,01,22,08,58,-5.70
2008,01,22,08,59,-5.70
2008,01,22,09,00,-5.70
2008,01,22,09,01,-5.70
2008,01,22,09,02,-5.70
2008,01,22,09,03,-5.70
2008,01,22,09,04,-5.70
2008,01,22,09,06,-5.70
2008,01,22,09,07,-5.70
2008,01,22,09,08,-5.70
2008,01,22,09,09,-5.70
2008,01,22,09,10,-5.70
2008,01,22,09,11,-5.70
2008,01,22,09,12,-5.60
2008,01,22,09,13,-5.60
2008,01,22,09,14,-5.60
2008,01,22,09,16,-5.50
2008,01,22,09,17,-5.50
2008,01,22,09,19,-5.40
2008,01,22,09,21,-5.40
2008,01,22,09,22,-5.40
2008,01,22,09,23,-5.30
2008,01,22,09,24,-5.30
2008,01,22,09,25,-5.30
2008,01,22,09,26,-5.30
2008,01,22,09,27,-5.30
2008,01,22,09,29,-5.20
2008,01,22,09,30,-5.20
2008,01,22,09,31,-5.10
2008,01,22,09,34,-5.00
2008,01,22,09,35,-5.00
2008,01,22,09,37,-4.90
2008,01,22,09,38,-4.90
2008,01,22,09,39,-4.90
2008,01,22,09,40,-4.90
2008,01,22,09,41,-4.80
2008,01,22,09,42,-4.80
2008,01,22,09,43,-4.80
2008,01,22,09,44,-4.80
2008,01,22,09,46,-4.80
2008,01,22,09,47,-4.70
2008,01,22,09,49,-4.70
2008,01,22,09,50,-4.70
2008,01,22,09,52,-4.60
2008,01,22,09,53,-4.60
2008,01,22,09,54,-4.60
2008,01,22,09,55,-4.50
2008,01,22,09,56,-4.50
2008,01,22,09,57,-4.50
2008,01,22,09,58,-4.50
2008,01,22,09,59,-4.50
2008,01,22,10,01,-4.50
2008,01,22,10,02,-4.50
2008,01,22,10,03,-4.50
2008,01,22,10,04,-4.50
2008,01,22,10,05,-4.50
2008,01,22,10,06,-4.60
2008,01,22,10,07,-4.50
2008,01,22,10,08,-4.50
2008,01,22,10,10,-4.50
2008,01,22,10,11,-4.50
2008,01,22,10,13,-4.50
2008,01,22,10,14,-4.50
2008,01,22,10,16,-4.40
2008,01,22,10,17,-4.40
2008,01,22,10,18,-4.40
2008,01,22,10,20,-4.40
2008,01,22,10,21,-4.40
2008,01,22,10,22,-4.40
2008,01,22,10,23,-4.30
2008,01,22,10,24,-4.30
2008,01,22,10,25,-4.30
2008,01,22,10,26,-4.30
2008,01,22,10,27,-4.30
2008,01,22,10,28,-4.30
2008,01,22,10,29,-4.30
2008,01,22,10,30,-4.30
2008,01,22,10,31,-4.30
2008,01,22,10,32,-4.30
2008,01,22,10,33,-4.30
2008,01,22,10,35,-4.30
2008,01,22,10,36,-4.30
2008,01,22,10,37,-4.30
2008,01,22,10,38,-4.30
2008,01,22,10,39,-4.30
2008,01,22,10,40,-4.30
2008,01,22,10,41,-4.30
2008,01,22,10,42,-4.30
2008,01,22,10,44,-4.30
2008,01,22,10,45,-4.30
2008,01,22,10,47,-4.20
2008,01,22,10,48,-4.20
2008,01,22,10,49,-4.20
2008,01,22,10,50,-4.20
2008,01,22,10,51,-4.20
2008,01,22,10,52,-4.20
2008,01,22,10,53,-4.10
2008,01,22,10,54,-4.10
2008,01,22,10,55,-4.10
2008,01,22,10,56,-4.10
2008,01,22,10,58,-3.90
2008,01,22,10,59,-3.90
2008,01,22,11,00,-3.90
2008,01,22,11,02,-3.90
2008,01,22,11,03,-3.90
2008,01,22,11,04,-3.90
2008,01,22,11,05,-3.90
2008,01,22,11,06,-3.90
2008,01,22,11,07,-3.90
2008,01,22,11,08,-3.90
2008,01,22,11,09,-3.90
2008,01,22,11,10,-3.90
2008,01,22,11,11,-3.90
2008,01,22,11,12,-3.90
2008,01,22,11,13,-3.90
2008,01,22,11,15,-3.90
2008,01,22,11,16,-3.80
2008,01,22,11,17,-3.80
2008,01,22,11,18,-3.80
2008,01,22,11,19,-3.80
2008,01,22,11,20,-3.80
2008,01,22,11,21,-3.80
2008,01,22,11,23,-3.70
2008,01,22,11,24,-3.70
2008,01,22,11,25,-3.70
2008,01,22,11,27,-3.60
2008,01,22,11,28,-3.50
2008,01,22,11,29,-3.50
2008,01,22,11,31,-3.40
2008,01,22,11,32,-3.40
2008,01,22,11,33,-3.30
2008,01,22,11,34,-3.30
2008,01,22,11,35,-3.30
2008,01,22,11,36,-3.30
2008,01,22,11,37,-3.20
2008,01,22,11,38,-3.20
2008,01,22,11,39,-3.20
2008,01,22,11,40,-3.20
2008,01,22,11,41,-3.10
2008,01,22,11,42,-3.10
2008,01,22,11,43,-3.10
2008,01,22,11,44,-3.00
2008,01,22,11,45,-2.90
2008,01,22,11,46,-2.90
2008,01,22,11,48,-2.80
2008,01,22,11,49,-2.80
2008,01,22,11,51,-2.70
2008,01,22,11,52,-2.70
2008,01,22,11,53,-2.60
2008,01,22,11,54,-2.60
2008,01,22,11,55,-2.60
2008,01,22,11,56,-2.60
2008,01,22,11,57,-2.50
2008,01,22,11,58,-2.40
2008,01,22,11,59,-2.40
2008,01,22,12,01,-2.30
2008,01,22,12,02,-2.30
2008,01,22,12,03,-2.20
2008,01,22,12,04,-2.20
2008,01,22,12,05,-2.10
2008,01,22,12,06,-2.10
2008,01,22,12,07,-2.00
2008,01,22,12,08,-2.00
2008,01,22,12,09,-1.90
2008,01,22,12,10,-1.90
2008,01,22,12,11,-1.80
2008,01,22,12,13,-1.80
2008,01,22,12,14,-1.70
2008,01,22,12,15,-1.70
2008,01,22,12,17,-1.60
2008,01,22,12,18,-1.50
2008,01,22,12,19,-1.40
2008,01,22,12,20,-1.40
2008,01,22,12,21,-1.30
2008,01,22,12,22,-1.30
2008,01,22,12,24,-1.20
2008,01,22,12,25,-1.20
2008,01,22,12,26,-1.20
2008,01,22,12,27,-1.20
2008,01,22,12,29,-1.10
2008,01,22,12,30,-1.10
2008,01,22,12,31,-1.10
2008,01,22,12,33,-1.00
2008,01,22,12,34,-0.90
2008,01,22,12,36,-0.90
2008,01,22,12,37,-0.80
2008,01,22,12,38,-0.80
2008,01,22,12,40,-0.80
2008,01,22,12,42,-0.70
2008,01,22,12,43,-0.70
2008,01,22,12,44,-0.70
2008,01,22,12,46,-0.60
2008,01,22,12,47,-0.60
2008,01,22,12,48,-0.60
2008,01,22,12,50,-0.60
2008,01,22,12,51,-0.60
2008,01,22,12,52,-0.60
2008,01,22,12,53,-0.50
2008,01,22,12,55,-0.50
2008,01,22,12,56,-0.60
2008,01,22,12,57,-0.60
2008,01,22,12,58,-0.60
2008,01,22,12,59,-0.60
2008,01,22,13,00,-0.60
2008,01,22,13,02,-0.60
2008,01,22,13,04,-0.50
2008,01,22,13,05,-0.50
2008,01,22,13,06,-0.50
2008,01,22,13,07,-0.40
2008,01,22,13,08,-0.40
2008,01,22,13,09,-0.40
2008,01,22,13,10,-0.40
2008,01,22,13,11,-0.40
2008,01,22,13,12,-0.40
2008,01,22,13,13,-0.30
2008,01,22,13,14,-0.30
2008,01,22,13,16,-0.20
2008,01,22,13,17,-0.20
2008,01,22,13,18,-0.20
2008,01,22,13,19,-0.10
2008,01,22,13,20,-0.10
2008,01,22,13,21,0.00
2008,01,22,13,22,0.00
2008,01,22,13,23,0.10
2008,01,22,13,24,0.10
2008,01,22,13,25,0.10
2008,01,22,13,26,0.20
2008,01,22,13,27,0.20
2008,01,22,13,28,0.30
2008,01,22,13,29,0.30
2008,01,22,13,30,0.30
2008,01,22,13,31,0.40
2008,01,22,13,32,0.40
2008,01,22,13,33,0.50
2008,01,22,13,34,0.60
2008,01,22,13,35,0.60
2008,01,22,13,37,0.70
2008,01,22,13,38,0.70
2008,01,22,13,39,0.80
2008,01,22,13,40,0.80
2008,01,22,13,42,0.90
2008,01,22,13,43,0.90
2008,01,22,13,44,0.90
2008,01,22,13,46,1.00
2008,01,22,13,47,1.00
2008,01,22,13,48,1.00
2008,01,22,13,49,1.10
2008,01,22,13,50,1.10
2008,01,22,13,51,1.10
2008,01,22,13,52,1.10
2008,01,22,13,53,1.10
2008,01,22,13,55,1.10
2008,01,22,13,56,1.20
2008,01,22,13,57,1.20
2008,01,22,13,58,1.20
2008,01,22,13,59,1.20
2008,01,22,14,00,1.30
2008,01,22,14,01,1.30
2008,01,22,14,02,1.30
2008,01,22,14,03,1.30
2008,01,22,14,04,1.30
2008,01,22,14,05,1.30
2008,01,22,14,06,1.30
2008,01,22,14,07,1.30
2008,01,22,14,08,1.30
2008,01,22,14,09,1.40
2008,01,22,14,10,1.40
2008,01,22,14,11,1.60
2008,01,22,14,12,1.60
2008,01,22,14,13,1.70
2008,01,22,14,14,1.70
2008,01,22,14,16,1.80
2008,01,22,14,17,1.90
2008,01,22,14,18,1.90
2008,01,22,14,19,1.90
2008,01,22,14,20,2.10
2008,01,22,14,21,2.10
2008,01,22,14,22,2.10
2008,01,22,14,23,2.20
2008,01,22,14,24,2.20
2008,01,22,14,25,2.20
2008,01,22,14,26,2.30
2008,01,22,14,27,2.30
2008,01,22,14,28,2.30
2008,01,22,14,29,2.30
2008,01,22,14,30,2.40
2008,01,22,14,31,2.40
2008,01,22,14,32,2.40
2008,01,22,14,33,2.40
2008,01,22,14,34,2.50
2008,01,22,14,35,2.50
2008,01,22,14,36,2.60
2008,01,22,14,37,2.60
2008,01,22,14,38,2.60
2008,01,22,14,39,2.60
2008,01,22,14,40,2.70
2008,01,22,14,41,2.70
2008,01,22,14,42,2.70
2008,01,22,14,43,2.80
2008,01,22,14,44,2.80
2008,01,22,14,46,2.80
2008,01,22,14,47,2.90
2008,01,22,14,48,2.90
2008,01,22,14,50,2.90
2008,01,22,14,51,3.00
2008,01,22,14,52,3.00
2008,01,22,14,53,3.00
2008,01,22,14,54,3.00
2008,01,22,14,55,3.10
2008,01,22,14,56,3.10
2008,01,22,14,57,3.10
2008,01,22,14,58,3.10
2008,01,22,14,59,3.10
2008,01,22,15,01,3.10
2008,01,22,15,02,3.10
2008,01,22,15,03,3.10
2008,01,22,15,04,3.20
2008,01,22,15,05,3.20
2008,01,22,15,06,3.20
2008,01,22,15,07,3.30
2008,01,22,15,08,3.30
2008,01,22,15,09,3.30
2008,01,22,15,10,3.30
2008,01,22,15,12,3.40
2008,01,22,15,13,3.40
2008,01,22,15,14,3.50
2008,01,22,15,17,3.60
2008,01,22,15,18,3.70
2008,01,22,15,19,3.70
2008,01,22,15,20,3.70
2008,01,22,15,21,3.70
2008,01,22,15,22,3.70
2008,01,22,15,23,3.70
2008,01,22,15,24,3.70
2008,01,22,15,25,3.80
2008,01,22,15,26,3.80
2008,01,22,15,27,3.80
2008,01,22,15,28,3.80
2008,01,22,15,29,3.80
2008,01,22,15,31,3.80
2008,01,22,15,32,3.80
2008,01,22,15,33,3.80
2008,01,22,15,35,3.70
2008,01,22,15,36,3.70
2008,01,22,15,38,3.70
2008,01,22,15,39,3.70
2008,01,22,15,40,3.70
2008,01,22,15,41,3.60
2008,01,22,15,42,3.60
2008,01,22,15,43,3.60
2008,01,22,15,44,3.60
2008,01,22,15,46,3.60
2008,01,22,15,47,3.70
2008,01,22,15,48,3.70
2008,01,22,15,49,3.70
2008,01,22,15,50,3.70
2008,01,22,15,51,3.80
2008,01,22,15,52,3.80
2008,01,22,15,53,3.80
2008,01,22,15,54,3.80
2008,01,22,15,55,3.80
2008,01,22,15,56,3.80
2008,01,22,15,57,3.80
2008,01,22,15,58,3.80
2008,01,22,15,59,3.80
2008,01,22,16,01,3.80
2008,01,22,16,02,3.80
2008,01,22,16,03,3.80
2008,01,22,16,04,3.80
2008,01,22,16,05,3.80
2008,01,22,16,06,3.80
2008,01,22,16,07,3.80
2008,01,22,16,08,3.80
2008,01,22,16,09,3.80
2008,01,22,16,11,3.90
2008,01,22,16,13,3.90
2008,01,22,16,14,3.90
2008,01,22,16,16,3.90
2008,01,22,16,17,3.80
2008,01,22,16,18,3.80
2008,01,22,16,19,3.80
2008,01,22,16,20,3.80
2008,01,22,16,21,3.80
2008,01,22,16,22,3.80
2008,01,22,16,23,3.70
2008,01,22,16,24,3.70
2008,01,22,16,25,3.70
2008,01,22,16,26,3.70
2008,01,22,16,28,3.60
2008,01,22,16,29,3.60
2008,01,22,16,30,3.50
2008,01,22,16,31,3.50
2008,01,22,16,33,3.40
2008,01,22,16,34,3.30
2008,01,22,16,35,3.30
2008,01,22,16,36,3.20
2008,01,22,16,38,3.10
2008,01,22,16,39,3.10
2008,01,22,16,41,3.00
2008,01,22,16,43,2.90
2008,01,22,16,44,2.90
2008,01,22,16,46,2.80
2008,01,22,16,47,2.80
2008,01,22,16,49,2.70
2008,01,22,16,51,2.70
2008,01,22,16,53,2.60
2008,01,22,16,55,2.60
2008,01,22,16,56,2.50
2008,01,22,16,57,2.50
2008,01,22,16,59,2.40
2008,01,22,17,00,2.30
2008,01,22,17,01,2.30
2008,01,22,17,03,2.20
2008,01,22,17,04,2.10
2008,01,22,17,05,2.10
2008,01,22,17,07,1.90
2008,01,22,17,08,1.90
2008,01,22,17,10,1.80
2008,01,22,17,12,1.70
2008,01,22,17,13,1.70
2008,01,22,17,14,1.70
2008,01,22,17,15,1.60
2008,01,22,17,17,1.60
2008,01,22,17,18,1.50
2008,01,22,17,20,1.40
2008,01,22,17,22,1.30
2008,01,22,17,23,1.30
2008,01,22,17,25,1.30
2008,01,22,17,27,1.30
2008,01,22,17,28,1.30
2008,01,22,17,30,1.20
2008,01,22,17,32,1.10
2008,01,22,17,33,1.10
2008,01,22,17,34,1.00
2008,01,22,17,35,1.00
2008,01,22,17,37,0.90
2008,01,22,17,38,0.90
2008,01,22,17,39,0.80
2008,01,22,17,40,0.80
2008,01,22,17,41,0.80
2008,01,22,17,42,0.70
2008,01,22,17,43,0.70
2008,01,22,17,44,0.70
2008,01,22,17,45,0.60
2008,01,22,17,46,0.60
2008,01,22,17,47,0.50
2008,01,22,17,48,0.50
2008,01,22,17,50,0.40
2008,01,22,17,52,0.30
2008,01,22,17,54,0.30
2008,01,22,17,55,0.20
2008,01,22,17,56,0.20
2008,01,22,17,57,0.20
2008,01,22,17,58,0.20
2008,01,22,17,59,0.10
2008,01,22,18,00,0.10
2008,01,22,18,01,0.10
2008,01,22,18,02,0.10
2008,01,22,18,03,0.00
2008,01,22,18,04,-0.10
2008,01,22,18,05,-0.10
2008,01,22,18,06,-0.10
2008,01,22,18,07,-0.20
2008,01,22,18,08,-0.20
2008,01,22,18,09,-0.20
2008,01,22,18,10,-0.20
2008,01,22,18,12,-0.30
2008,01,22,18,14,-0.30
2008,01,22,18,16,-0.40
2008,01,22,18,17,-0.40
2008,01,22,18,18,-0.40
2008,01,22,18,19,-0.40
2008,01,22,18,20,-0.50
2008,01,22,18,21,-0.50
2008,01,22,18,22,-0.60
2008,01,22,18,23,-0.60
2008,01,22,18,24,-0.60
2008,01,22,18,25,-0.60
2008,01,22,18,26,-0.70
2008,01,22,18,27,-0.70
2008,01,22,18,28,-0.70
2008,01,22,18,30,-0.80
2008,01,22,18,32,-0.80
2008,01,22,18,33,-0.80
2008,01,22,18,34,-0.80
2008,01,22,18,35,-0.80
2008,01,22,18,36,-0.80
2008,01,22,18,37,-0.90
2008,01,22,18,38,-0.90
2008,01,22,18,39,-0.90
2008,01,22,18,40,-0.90
2008,01,22,18,41,-0.90
2008,01,22,18,42,-1.00
2008,01,22,18,43,-1.00
2008,01,22,18,44,-1.00
2008,01,22,18,45,-1.10
2008,01,22,18,46,-1.10
2008,01,22,18,47,-1.10
2008,01,22,18,48,-1.10
2008,01,22,18,49,-1.10
2008,01,22,18,50,-1.10
2008,01,22,18,51,-1.20
2008,01,22,18,52,-1.20
2008,01,22,18,53,-1.20
2008,01,22,18,54,-1.20
2008,01,22,18,55,-1.20
2008,01,22,18,56,-1.30
2008,01,22,18,57,-1.30
2008,01,22,18,58,-1.30
2008,01,22,18,59,-1.30
2008,01,22,19,00,-1.30
2008,01,22,19,01,-1.30
2008,01,22,19,02,-1.40
2008,01,22,19,03,-1.40
2008,01,22,19,04,-1.40
2008,01,22,19,05,-1.40
2008,01,22,19,06,-1.40
2008,01,22,19,07,-1.50
2008,01,22,19,08,-1.50
2008,01,22,19,09,-1.50
2008,01,22,19,10,-1.60
2008,01,22,19,11,-1.60
2008,01,22,19,12,-1.60
2008,01,22,19,13,-1.60
2008,01,22,19,14,-1.60
2008,01,22,19,15,-1.70
2008,01,22,19,16,-1.70
2008,01,22,19,17,-1.70
2008,01,22,19,18,-1.70
2008,01,22,19,19,-1.70
2008,01,22,19,20,-1.70
2008,01,22,19,22,-1.80
2008,01,22,19,23,-1.80
2008,01,22,19,24,-1.80
2008,01,22,19,25,-1.80
2008,01,22,19,26,-1.80
2008,01,22,19,27,-1.80
2008,01,22,19,28,-1.80
2008,01,22,19,29,-1.80
2008,01,22,19,30,-1.80
2008,01,22,19,31,-1.80
2008,01,22,19,32,-1.90
2008,01,22,19,33,-1.90
2008,01,22,19,34,-1.90
2008,01,22,19,35,-1.90
2008,01,22,19,36,-1.90
2008,01,22,19,37,-1.90
2008,01,22,19,38,-1.90
2008,01,22,19,39,-1.90
2008,01,22,19,40,-2.00
2008,01,22,19,41,-2.00
2008,01,22,19,43,-2.00
2008,01,22,19,45,-2.10
2008,01,22,19,46,-2.10
2008,01,22,19,47,-2.10
2008,01,22,19,48,-2.10
2008,01,22,19,49,-2.10
2008,01,22,19,50,-2.10
2008,01,22,19,51,-2.20
2008,01,22,19,52,-2.20
2008,01,22,19,53,-2.20
2008,01,22,19,54,-2.20
2008,01,22,19,55,-2.20
2008,01,22,19,56,-2.20
2008,01,22,19,57,-2.20
2008,01,22,19,58,-2.20
2008,01,22,19,59,-2.20
2008,01,22,20,00,-2.30
2008,01,22,20,01,-2.30
2008,01,22,20,02,-2.30
2008,01,22,20,03,-2.30
2008,01,22,20,04,-2.30
2008,01,22,20,05,-2.30
2008,01,22,20,06,-2.30